Theta_e
344 344 346 347 346 346 348 349 349 350 350 350 349 349 349 349 349 349 347 347 346 340 339 339 339 339 345 341 344 343 344 344 342 341 341 340 341 341 342 342 343 344 344 344 343 342 343 344 345 347 349 349 350 342 336 333 333 336 330 332 337 330
341 342 344 346 347 347 347 347 343 344 344 346 349 349 346 342 350 341 348 345 340 341 338 336 336 346 341 341 341 343 343 344 343 343 342 342 341 341 342 341 342 343 343 343 343 337 336 339 342 344 348 350 346 339 336 335 333 335 334 330 333 332
342 343 343 345 346 346 345 343 342 343 345 348 348 347 341 346 341 341 343 342 343 340 339 337 339 344 342 344 342 343 343 344 344 344 344 345 345 345 344 344 345 344 344 343 336 330 331 331 331 341 345 344 340 339 338 337 335 334 336 331 332 336
341 342 343 343 344 343 342 342 342 343 343 342 339 344 340 340 340 339 342 339 341 340 342 338 346 349 350 342 340 345 345 344 344 345 344 344 345 344 344 344 345 345 343 338 330 328 328 327 328 331 334 337 338 338 337 336 335 336 333 334 332 338
341 341 342 342 342 341 340 341 341 342 342 339 340 339 340 340 339 339 338 340 340 342 339 337 338 340 339 339 337 336 337 337 338 337 345 338 337 338 338 336 336 336 332 331 329 327 326 326 329 331 333 335 337 337 336 336 337 337 336 333 336 341
339 340 340 341 341 342 342 340 340 341 340 340 341 340 341 341 340 340 338 342 343 338 337 337 336 337 339 336 336 336 336 335 335 339 340 338 336 336 336 336 337 336 333 330 327 325 324 328 325 326 332 335 337 337 336 335 336 335 334 332 335 343
337 337 338 339 340 341 339 339 340 340 340 339 339 339 339 338 338 340 342 343 336 335 334 334 334 336 334 335 335 335 336 338 338 336 341 338 335 336 337 337 335 335 335 333 331 328 326 326 326 327 329 335 336 337 336 336 334 331 331 332 335 343
336 335 335 337 337 338 337 337 338 343 342 340 340 338 337 337 343 343 343 343 342 335 334 333 334 334 334 333 334 334 334 337 338 337 339 340 339 336 337 337 337 337 337 336 332 330 332 334 333 330 332 334 334 333 332 330 328 327 328 332 333 341
336 334 334 334 335 336 334 336 337 339 339 343 338 337 337 339 341 342 342 343 345 337 335 335 334 334 334 332 333 335 336 339 338 337 336 335 335 337 335 334 334 337 338 336 335 334 334 336 334 332 331 331 331 331 331 331 331 331 331 331 333 338
336 334 333 333 333 333 334 334 336 338 339 343 339 339 338 337 337 339 339 342 342 338 338 337 334 335 334 332 332 333 337 339 337 336 334 336 335 334 334 334 335 335 335 334 333 336 336 335 335 334 333 332 332 332 331 330 331 330 331 332 332 336
336 337 334 334 333 332 333 333 334 335 335 335 336 336 335 335 335 335 336 337 337 340 339 337 335 334 333 331 332 334 336 337 335 336 337 337 336 335 335 334 335 334 333 333 334 334 334 334 333 333 333 332 332 331 331 332 332 333 333 332 331 332
334 335 335 334 334 333 333 334 333 335 334 335 336 335 335 336 337 335 336 335 335 335 338 337 337 336 334 333 334 333 334 335 335 336 338 336 336 337 336 337 338 337 336 333 334 333 334 332 332 332 332 333 332 332 332 332 332 331 331 332 331 332
335 334 333 333 333 334 334 334 334 334 335 335 334 334 334 335 336 337 338 336 334 335 337 335 337 337 339 335 334 333 334 333 334 336 336 337 336 336 335 335 336 336 337 334 334 333 334 333 332 332 333 334 334 333 333 334 334 332 332 331 332 331
333 333 333 333 333 333 333 333 334 334 336 335 334 335 336 336 338 336 337 336 335 335 334 334 335 336 336 335 333 332 333 332 333 336 338 338 335 334 335 335 334 334 337 333 332 332 331 331 331 331 332 333 333 333 332 333 332 333 332 332 332 332
335 335 335 333 333 333 334 334 333 333 334 335 335 334 334 335 335 336 336 335 336 336 335 334 336 334 334 334 333 334 333 332 335 338 336 336 334 334 334 334 333 333 332 331 331 333 332 330 330 331 332 332 332 333 333 333 334 334 334 333 332 332
333 333 332 334 334 334 334 334 335 337 334 334 334 333 332 333 334 334 335 333 335 336 335 334 337 339 336 335 334 334 334 335 336 334 333 333 333 331 331 331 331 331 329 329 330 330 330 329 329 330 331 331 331 332 332 332 333 333 334 334 334 334
332 332 333 333 333 333 334 335 335 334 334 333 333 333 333 333 334 333 334 333 333 335 336 338 337 337 336 335 333 333 333 333 333 332 331 330 330 330 329 329 328 330 328 325 327 327 325 326 327 329 330 329 330 330 330 330 331 332 334 333 333 333
332 333 333 333 334 334 334 333 333 333 334 332 332 332 333 334 334 333 333 333 335 335 334 334 335 335 334 334 331 330 331 332 331 330 329 328 327 328 328 326 325 327 327 326 326 324 322 323 326 328 328 327 327 327 328 329 331 333 331 332 332 333
333 333 333 334 334 332 332 332 333 332 331 331 331 331 332 332 332 333 333 335 334 332 331 330 330 332 332 331 330 329 329 329 330 329 327 326 326 326 326 324 323 324 325 326 324 322 321 321 324 325 325 325 325 325 326 327 329 326 327 328 330 331
333 333 333 333 332 331 331 331 329 329 329 330 330 332 331 331 332 330 329 329 329 329 329 328 327 327 328 328 328 328 327 328 329 329 326 324 323 322 321 321 321 322 321 322 322 320 320 320 321 319 321 323 323 323 323 326 323 323 325 325 326 327
333 333 331 330 330 329 328 328 327 327 327 328 330 330 329 327 326 327 326 326 326 326 326 326 326 326 324 327 325 326 324 324 325 325 324 322 321 321 321 321 319 320 319 318 318 318 318 319 317 316 316 318 320 321 322 323 321 322 323 323 323 323
332 330 329 329 330 328 327 327 327 327 328 329 329 326 324 324 324 325 325 324 325 324 324 325 326 324 324 323 322 322 322 320 321 322 321 321 320 322 318 318 318 316 318 317 315 316 316 317 313 312 313 315 314 319 319 320 319 320 322 322 321 320
330 328 328 330 329 329 328 329 328 327 329 330 330 327 325 325 324 321 322 323 323 322 322 322 322 323 321 320 319 319 319 319 319 321 316 316 316 316 316 316 316 314 313 315 316 316 315 315 310 312 312 310 308 312 314 315 316 317 320 320 319 317
328 327 329 331 331 330 330 329 329 331 330 327 324 325 323 323 321 320 320 321 321 320 320 319 320 321 319 318 317 316 316 316 317 318 315 314 314 314 314 314 313 314 312 310 311 311 314 313 312 312 307 309 311 309 306 308 311 314 317 318 316 314
328 327 329 331 330 330 331 330 331 329 328 326 325 322 320 319 320 321 319 318 318 318 318 317 317 318 319 315 315 315 315 315 315 315 315 314 313 312 312 312 312 312 311 308 308 308 310 313 311 314 310 309 308 308 307 309 310 308 312 314 313 312
327 328 329 329 330 330 330 329 327 325 324 323 321 319 316 315 315 315 315 316 316 316 316 315 315 315 317 316 314 314 314 314 314 314 314 312 312 312 311 310 310 310 310 310 308 307 306 311 311 312 312 313 314 308 306 309 307 303 310 312 311 309
328 328 329 330 330 330 328 329 328 326 325 323 321 320 320 318 317 315 316 314 314 314 314 313 313 314 314 315 313 313 313 313 313 313 315 312 311 310 310 310 311 310 309 310 308 305 305 305 307 308 310 311 313 312 310 306 302 304 300 305 307 305
328 328 327 329 330 329 329 328 326 324 324 322 321 320 320 319 319 318 315 314 314 314 314 314 314 313 314 315 314 312 313 313 313 313 314 310 310 309 310 311 311 309 310 309 307 305 304 305 303 304 309 307 308 310 308 306 305 302 301 298 299 303
324 324 323 325 327 328 329 327 325 324 322 322 321 320 320 320 318 318 315 315 313 313 313 313 313 313 312 313 315 312 311 312 312 312 315 310 310 309 308 308 307 307 307 308 309 308 305 304 305 304 304 305 305 305 305 304 303 303 301 297 297 298
320 320 321 322 325 326 326 326 324 323 322 320 320 318 318 317 316 316 314 313 312 311 311 311 311 311 310 311 311 312 311 311 311 313 313 309 308 308 307 307 307 308 307 306 306 307 306 305 304 304 304 304 302 301 300 300 299 299 299 300 296 297
319 319 320 320 321 322 323 323 322 322 320 318 317 316 314 313 314 314 312 311 310 310 310 309 309 309 309 309 310 312 309 310 311 313 310 308 307 307 307 307 307 306 306 306 305 304 304 304 303 303 302 302 301 300 298 297 297 298 297 296 295 295
317 318 318 319 319 319 320 320 320 320 319 318 317 316 313 312 313 312 310 309 309 309 308 308 307 306 306 308 309 306 308 307 308 307 306 306 305 304 305 306 306 305 304 304 304 304 302 302 301 301 300 300 300 300 300 298 298 297 296 295 294 292
316 317 317 317 316 317 317 317 317 318 318 319 317 316 315 314 313 310 309 308 307 306 306 306 305 305 305 306 307 306 305 305 305 306 306 305 305 304 303 304 305 304 303 303 302 302 302 301 301 300 299 300 300 299 298 298 297 296 295 295 294 291
314 315 315 315 315 314 314 314 315 316 317 317 316 316 315 313 312 310 309 308 307 306 305 305 304 304 304 305 305 305 305 304 304 305 305 305 304 304 303 303 303 303 302 302 302 301 301 301 300 300 300 299 298 298 297 297 296 296 294 293 292 291
312 313 313 313 313 313 313 313 314 314 314 314 313 313 312 312 310 309 308 307 306 305 305 304 304 304 305 304 304 305 305 303 304 303 303 302 304 303 302 303 303 304 304 302 302 302 301 301 300 299 298 298 298 297 297 297 296 295 295 294 293 292
312 312 313 313 312 311 311 312 313 313 313 314 314 312 312 311 309 309 308 306 305 305 305 304 305 304 304 303 303 302 303 302 303 303 303 302 302 302 302 302 301 301 302 305 301 300 300 300 299 298 297 297 297 296 296 296 296 295 294 295 294 293
311 311 311 311 311 311 311 311 311 311 311 311 311 311 310 309 309 308 308 306 305 304 305 305 306 305 303 303 303 302 301 301 301 301 301 302 302 301 301 301 300 300 300 301 302 300 300 299 298 298 297 297 296 295 295 296 295 296 296 294 295 293
Wind_Speed
4 5 5 5 4 4 7 10 8 9 9 8 8 8 8 8 8 7 6 7 5 1 1 1 1 1 2 0 2 2 2 2 1 1 0 2 3 4 5 6 7 7 7 7 7 8 9 10 10 11 12 11 11 6 5 3 3 3 1 3 3 4
4 5 5 4 4 4 4 7 3 3 4 5 6 6 5 3 6 3 6 4 2 2 1 1 1 3 1 1 1 1 0 1 1 1 2 3 4 5 6 7 7 8 8 7 8 5 5 8 10 10 10 12 7 6 6 5 3 3 1 3 2 5
5 5 6 5 5 5 5 4 3 3 3 5 4 3 2 3 1 2 1 2 2 1 2 2 1 3 2 3 2 2 2 2 2 3 3 4 5 6 6 7 7 8 8 8 4 4 5 5 6 9 8 6 5 5 6 6 3 1 3 3 4 7
8 8 7 6 6 5 5 4 4 4 5 3 3 1 3 1 2 2 2 1 2 2 2 2 5 6 3 1 1 2 2 3 5 5 6 4 5 6 7 7 7 7 5 3 3 4 5 5 5 5 5 5 5 6 5 5 5 3 3 3 4 10
9 9 9 7 7 6 4 4 4 5 5 4 4 3 4 3 2 3 3 3 3 1 1 1 1 1 2 0 0 0 1 2 2 3 5 4 4 4 4 5 4 4 3 3 3 4 3 5 5 5 5 5 5 5 6 5 5 5 4 3 4 10
8 8 8 7 7 6 6 5 5 5 4 4 4 4 3 3 3 3 3 4 4 4 3 2 2 2 2 1 1 2 2 2 2 3 2 4 4 4 5 4 4 5 5 3 4 4 4 5 5 5 5 5 5 5 5 6 5 5 6 5 5 11
6 6 6 6 5 5 6 6 6 5 5 5 3 3 4 3 2 3 4 5 5 5 4 3 2 1 2 1 0 1 2 2 2 4 3 3 3 4 5 5 5 5 5 4 4 4 3 4 4 6 5 5 5 5 5 6 5 6 5 4 4 10
6 6 6 6 5 5 5 5 5 5 5 6 4 3 5 2 4 5 3 3 3 4 4 2 1 1 1 0 1 1 2 3 2 4 4 3 4 5 5 5 4 4 5 4 4 4 3 3 3 3 3 4 4 5 5 6 5 5 4 4 3 6
7 7 6 6 6 6 5 5 4 4 5 4 3 3 3 3 3 3 3 4 5 4 4 3 0 0 1 2 2 2 4 4 3 4 4 3 3 4 5 4 4 4 3 4 4 4 3 3 3 2 2 2 2 3 4 4 4 3 1 2 3 5
9 8 7 6 5 4 3 3 3 3 2 3 4 4 3 4 4 4 4 3 1 2 5 5 2 0 0 2 2 2 3 4 4 3 2 4 4 4 5 5 4 2 2 2 2 4 3 4 4 4 4 3 4 4 4 5 4 3 3 2 3 3
6 5 5 5 4 4 4 4 3 4 4 5 4 4 4 4 4 4 3 2 2 2 1 2 3 3 1 1 2 2 3 4 5 5 4 5 3 4 4 3 2 3 3 3 3 4 4 5 4 4 3 3 4 3 4 4 4 4 4 5 3 3
8 7 7 6 5 5 4 3 3 5 5 4 4 4 4 4 4 4 2 3 3 3 2 3 2 2 2 2 2 3 3 4 4 5 3 3 4 3 3 2 3 3 2 3 4 4 3 3 4 5 4 5 4 4 3 4 3 4 4 4 6 4
8 7 9 8 6 5 4 3 3 5 4 4 4 4 4 4 4 5 4 2 1 1 3 1 1 4 4 3 1 3 3 2 3 4 3 1 2 3 3 4 5 3 4 4 4 5 4 4 4 5 5 5 5 5 5 5 5 4 4 4 5 5
8 8 8 7 6 6 5 4 4 4 4 4 4 5 4 3 4 4 3 3 2 2 3 3 2 3 4 3 3 3 2 3 4 4 4 4 4 4 4 4 5 4 4 4 4 4 4 5 5 5 5 4 4 5 5 5 5 5 4 5 5 4
7 8 9 7 7 6 4 5 5 4 3 4 4 5 4 4 4 2 2 1 1 2 3 3 3 2 4 3 4 3 4 3 3 4 4 5 5 5 5 4 5 5 5 5 5 4 4 5 4 5 5 5 5 5 5 5 5 5 4 4 3 4
6 8 7 8 6 6 5 4 5 5 4 3 4 4 3 4 3 2 2 0 1 2 3 2 1 3 5 6 5 5 5 5 4 4 4 5 5 6 4 4 5 5 6 6 6 6 5 5 5 5 5 5 5 4 5 5 5 6 6 5 5 4
8 8 8 8 6 5 5 5 5 4 3 4 5 4 4 4 4 2 1 2 2 2 3 5 7 7 8 6 5 5 4 4 3 5 5 5 5 5 5 5 6 6 5 4 5 6 7 6 6 5 5 4 5 5 5 5 6 6 6 5 5 6
7 6 7 8 7 6 5 6 5 5 4 5 4 4 4 4 4 2 2 2 2 3 6 6 7 7 7 6 5 5 4 4 4 5 5 5 5 5 6 6 6 6 6 5 7 7 7 7 5 6 5 5 6 5 5 6 6 5 5 6 6 6
6 6 7 7 7 6 6 6 5 6 6 5 5 4 4 5 4 3 4 4 5 5 6 7 8 7 7 6 5 5 5 4 5 5 6 6 6 6 6 6 6 6 6 5 6 6 6 6 5 5 5 6 5 4 4 3 5 7 7 7 7 7
5 6 6 6 6 6 5 6 7 6 7 6 5 6 5 4 5 6 5 5 6 6 7 7 8 8 8 6 6 6 6 5 5 6 7 7 6 6 6 6 6 5 6 5 7 7 7 6 5 3 4 6 4 3 3 2 6 7 6 7 7 7
4 4 6 6 5 6 7 6 5 6 7 5 6 6 6 5 6 5 6 7 7 6 7 7 7 8 7 6 5 5 6 6 6 7 6 5 4 6 6 5 3 4 6 6 8 8 9 5 5 6 3 3 5 4 2 3 7 8 7 6 6 8
4 3 4 4 5 5 3 4 6 6 6 6 6 6 6 5 5 5 7 7 7 7 7 7 7 7 7 6 5 5 6 6 6 5 5 4 5 6 6 6 4 4 4 5 5 8 9 6 6 4 5 7 4 6 2 3 6 8 6 6 7 8
4 4 3 4 4 5 4 5 6 5 6 6 6 6 6 5 5 6 7 7 7 6 6 6 6 6 5 5 5 6 6 5 5 4 6 7 6 7 6 6 6 4 4 4 4 7 9 8 4 5 1 1 4 7 6 6 2 8 6 6 7 9
4 4 4 4 5 5 6 7 6 7 7 7 7 6 6 5 5 7 8 6 6 5 5 6 6 5 6 6 6 6 5 6 6 5 6 7 7 7 6 6 6 7 3 5 5 6 7 9 8 6 5 2 3 1 5 3 8 7 2 6 9 9
5 4 4 5 6 7 9 8 8 9 9 9 6 5 6 6 5 6 6 6 5 5 7 7 6 6 6 7 6 6 6 5 6 6 6 7 6 5 5 5 6 6 6 3 5 4 7 8 10 8 3 3 3 3 3 7 9 3 6 4 7 8
4 5 6 6 7 8 9 11 10 9 8 6 6 5 6 6 4 5 5 3 6 6 7 7 7 7 7 6 7 6 6 6 7 7 6 6 5 5 6 6 5 5 6 5 5 7 6 6 7 8 8 6 4 3 5 6 5 7 3 2 5 7
5 5 5 5 6 7 7 7 8 9 8 7 7 5 5 4 6 5 5 6 6 7 7 8 7 6 6 6 6 6 6 6 6 6 5 6 6 5 5 4 4 5 5 5 6 8 7 5 4 7 7 7 7 6 7 6 5 6 8 3 4 9
4 4 3 4 5 5 8 7 7 7 7 7 8 8 7 6 5 5 6 6 7 7 7 7 7 7 6 6 6 6 6 6 6 5 5 6 5 4 5 4 4 4 4 5 5 7 5 6 6 5 5 7 6 6 7 8 5 3 2 9 9 3
5 4 3 4 5 4 5 7 8 8 8 5 8 7 6 6 6 5 8 7 8 7 7 8 8 7 6 6 5 5 5 5 5 4 4 5 4 4 4 4 4 5 5 6 5 4 5 6 6 6 5 6 6 6 6 7 7 7 6 5 7 11
6 5 4 6 6 6 6 8 8 9 10 7 6 6 6 7 6 6 8 7 6 7 6 6 7 7 6 5 6 5 5 5 4 5 4 4 3 3 3 3 4 4 5 7 6 7 8 7 7 7 7 6 6 5 5 6 7 7 4 4 6 10
6 6 6 7 7 7 6 6 8 9 10 10 8 8 7 6 6 7 8 7 6 6 6 6 6 6 5 5 5 5 5 4 5 5 5 5 4 4 4 4 5 7 8 8 8 9 9 8 8 8 7 7 7 7 6 6 6 6 4 4 5 5
6 6 7 7 8 7 7 6 6 8 9 8 8 7 8 7 7 8 8 7 6 6 6 6 6 6 5 5 5 5 4 5 6 6 6 4 5 5 5 6 6 7 7 8 8 9 8 8 8 7 8 7 8 8 8 7 6 6 5 5 4 4
7 6 7 7 8 7 7 6 6 6 6 6 6 7 7 7 6 8 7 7 7 7 6 6 5 6 4 5 4 6 6 6 6 6 5 6 5 7 6 6 6 7 8 8 8 8 8 7 7 8 8 8 8 9 8 6 7 6 5 4 5 6
7 6 6 7 7 8 7 6 6 6 7 6 6 7 6 7 7 7 6 7 6 6 7 6 5 4 3 4 5 4 5 6 5 6 6 6 6 6 6 7 6 7 7 7 8 8 7 7 8 8 8 9 8 8 7 7 6 6 6 6 6 6
8 7 8 7 7 8 6 6 6 7 7 6 7 7 6 6 7 8 7 8 6 6 7 5 5 3 4 5 5 6 6 7 6 6 6 6 6 7 6 7 7 7 7 7 8 8 8 9 10 10 10 8 8 7 6 6 5 5 4 4 4 5
9 7 7 7 7 7 6 6 7 8 7 7 7 7 7 6 7 7 8 8 7 6 6 6 4 4 4 5 6 6 7 7 6 6 6 6 6 7 7 8 7 7 8 5 8 10 9 10 10 10 9 7 8 6 5 4 4 4 4 4 4 4
8 7 7 7 7 6 6 7 6 7 7 7 7 8 9 8 8 7 8 8 7 5 5 5 5 4 5 4 6 6 7 7 7 6 7 6 6 6 7 7 7 7 7 6 8 9 8 9 8 8 8 8 6 5 3 3 3 4 4 3 3 3
Wind_Direction
122 122 117 112 115 125 138 141 143 148 149 151 157 161 155 155 151 152 152 159 161 125 138 254 154 175 178 158 176 141 123 129 131 139 231 277 295 296 307 310 319 327 328 322 320 318 315 313 314 314 315 317 318 319 314 320 311 299 317 189 188 192
125 123 123 121 129 138 148 147 147 152 158 168 172 170 163 164 163 157 163 166 151 175 191 231 254 203 125 232 255 235 107 47 14 350 323 316 311 305 310 314 314 315 314 320 319 324 318 314 313 309 305 305 311 310 315 316 337 305 274 195 197 215
144 140 134 139 146 156 155 157 150 157 181 185 191 174 168 182 91 154 158 171 175 214 190 239 233 241 170 203 221 242 300 309 323 331 328 317 310 305 304 298 298 303 308 310 313 309 305 305 305 305 306 304 299 294 298 302 304 268 276 220 194 216
157 157 151 158 159 165 163 156 162 179 200 187 197 174 173 216 152 160 205 195 199 222 236 223 244 250 214 155 241 223 243 293 314 326 317 322 314 307 306 303 296 293 294 296 295 289 291 287 288 288 291 288 286 287 289 289 292 278 252 238 212 210
166 166 161 162 162 166 162 159 177 194 201 185 188 191 195 201 194 181 191 187 205 201 139 121 68 54 62 118 335 349 325 318 327 317 308 305 305 303 310 305 304 300 282 271 277 275 275 279 274 272 273 277 276 281 286 284 280 282 274 242 221 213
171 170 166 163 163 167 162 172 191 207 203 202 194 197 209 213 220 214 175 149 139 124 123 113 85 75 76 38 346 332 299 277 289 273 273 272 280 292 295 289 295 294 285 259 246 248 244 254 269 266 260 263 267 275 274 279 282 286 277 245 217 208
173 169 167 164 162 160 175 188 190 202 205 211 195 185 220 226 213 173 155 158 134 123 105 91 81 90 80 112 289 332 303 285 272 273 278 262 265 261 271 282 280 278 282 288 280 264 248 237 246 262 262 254 253 252 259 265 273 273 262 241 235 216
176 172 173 175 168 178 186 189 198 203 216 218 172 179 213 172 159 147 149 130 118 109 113 100 62 28 25 15 338 291 284 293 272 264 264 265 277 281 277 270 273 277 280 283 281 284 298 286 266 245 236 244 250 257 255 254 254 262 244 223 225 231
183 178 173 170 178 189 190 195 194 199 224 230 163 175 163 162 116 123 126 133 133 130 121 130 139 356 355 6 331 334 328 301 286 271 273 279 258 272 271 268 265 264 264 267 274 279 272 305 309 266 233 267 269 275 276 280 283 290 321 196 203 226
183 176 169 165 182 163 160 125 122 104 44 70 72 70 99 85 78 66 42 31 39 149 164 154 154 170 86 317 354 320 284 273 275 274 267 283 275 268 271 276 271 269 289 305 312 308 344 326 316 321 327 311 297 294 300 294 296 293 274 248 231 234
157 133 134 136 127 117 104 111 115 100 66 66 72 78 62 71 78 68 40 6 16 23 12 76 143 148 138 42 8 338 355 350 339 313 282 259 270 260 266 262 302 346 358 351 343 343 3 345 333 330 322 316 305 315 305 302 289 300 316 303 277 251
130 134 127 120 118 112 104 109 108 90 80 89 102 83 70 58 66 65 47 32 2 346 327 22 345 81 79 53 19 12 351 4 321 314 310 292 301 317 333 341 357 5 15 20 355 1 356 3 341 332 334 330 328 328 313 308 298 299 300 297 298 293
129 126 123 123 118 113 111 102 93 91 100 101 100 95 81 75 75 65 61 88 247 249 111 129 40 85 83 88 21 31 24 354 334 328 302 293 0 356 13 8 8 352 9 7 8 351 347 355 352 340 340 330 333 320 316 314 300 299 288 282 283 283
123 118 116 117 118 116 117 116 103 97 105 103 100 98 93 76 76 83 108 167 200 202 115 96 48 52 77 77 63 56 33 334 330 335 331 19 21 8 9 14 355 0 358 4 355 335 353 346 337 332 338 329 331 316 321 318 300 283 276 280 274 281
123 120 119 119 118 120 126 119 115 109 97 104 95 92 83 74 71 102 146 215 243 75 68 87 111 165 90 99 74 24 352 327 346 4 9 20 27 12 14 20 8 10 352 355 347 343 359 341 333 330 322 329 320 319 323 311 307 299 289 281 287 285
122 120 118 119 117 122 126 122 121 114 110 106 102 93 92 90 85 58 58 62 3 73 105 137 141 141 94 68 63 59 42 39 48 54 43 32 33 24 2 19 17 24 11 359 0 358 359 348 336 326 321 323 315 321 317 314 311 305 300 307 299 297
127 125 120 114 118 121 121 117 106 106 102 94 89 86 82 91 85 79 30 78 99 83 57 68 83 82 82 77 69 73 59 55 49 58 49 38 37 19 21 16 13 14 23 360 7 0 355 349 334 325 322 328 327 330 329 322 319 318 320 320 317 319
120 121 122 126 128 125 122 112 104 101 88 80 75 74 74 87 93 90 60 55 34 42 61 65 70 80 83 83 76 66 54 44 47 50 49 40 29 20 26 26 14 7 10 15 16 4 347 339 327 324 326 328 326 337 336 344 341 346 1 359 357 358
121 122 119 121 122 116 108 94 93 96 91 84 84 81 79 79 75 53 41 60 63 55 57 57 59 61 68 65 65 54 48 34 41 45 42 34 25 22 25 20 26 6 10 25 28 2 343 324 327 321 319 315 318 325 350 1 21 28 24 24 26 20
119 124 122 117 119 113 107 113 111 99 87 85 83 81 65 68 66 66 65 63 60 57 54 56 57 58 59 51 49 48 43 33 38 48 43 38 26 26 24 20 17 16 11 12 26 6 352 341 322 323 313 316 308 318 346 55 40 31 24 24 27 28
133 131 133 129 126 131 127 113 93 104 109 102 93 84 73 66 71 78 74 66 62 57 55 54 55 57 57 55 48 43 41 31 36 47 51 45 34 35 31 30 13 21 21 23 20 5 356 326 8 349 332 325 319 331 358 82 52 30 23 21 28 36
126 121 119 124 132 121 106 126 130 127 116 101 96 90 90 71 75 74 75 74 68 60 56 56 54 55 55 53 48 41 37 34 39 53 60 49 45 41 37 33 17 25 19 40 38 6 360 1 26 358 330 333 340 329 1 41 57 26 20 21 32 39
116 119 117 123 115 117 105 110 121 128 120 100 73 89 92 90 86 80 68 70 69 63 62 57 52 55 59 51 54 51 42 44 51 53 55 47 43 42 34 36 31 38 7 24 45 20 17 31 10 313 250 33 356 360 335 2 360 22 15 30 38 41
116 115 118 113 110 108 111 111 104 113 96 94 112 97 86 82 81 79 70 68 65 67 63 58 51 53 60 55 53 54 53 53 51 47 62 65 51 49 38 36 36 34 35 45 20 22 22 20 27 5 20 17 293 45 333 12 336 322 21 45 44 40
124 122 118 118 121 123 116 106 105 96 100 96 80 87 89 68 65 82 82 64 62 60 60 60 54 56 59 58 53 51 56 55 57 51 63 66 62 56 53 48 42 49 40 68 44 28 19 21 30 28 48 15 1 20 1 318 323 275 16 15 39 43
120 117 121 127 134 135 136 134 131 125 124 120 115 108 106 119 102 89 92 87 64 62 68 64 58 56 58 58 56 52 53 58 58 59 61 70 69 59 50 49 40 62 57 42 87 51 31 11 30 32 37 51 49 29 336 320 18 313 359 63 67 44
134 132 132 136 143 136 132 136 134 135 136 134 123 106 116 119 112 104 95 81 80 68 64 66 57 56 59 63 61 52 54 61 66 66 67 70 64 61 60 59 53 60 62 61 56 66 48 8 9 31 27 35 46 50 34 30 8 303 331 354 63 10
127 127 128 136 139 149 141 138 122 116 120 125 124 132 134 120 110 112 97 90 81 72 64 66 66 58 55 61 62 53 53 59 67 69 75 73 76 67 63 53 61 62 66 69 71 73 63 39 56 11 12 28 27 38 41 42 34 23 314 327 319 22
99 100 104 127 140 140 126 127 124 123 117 120 124 129 127 117 117 111 93 75 76 73 66 63 64 64 54 55 59 57 52 61 64 64 69 72 70 71 75 72 57 53 59 53 55 64 67 46 39 29 14 18 26 34 35 36 21 20 21 339 315 345
100 100 107 112 120 120 122 124 125 129 128 129 125 120 117 119 113 105 96 91 83 82 76 69 63 61 56 49 56 51 55 58 59 67 65 66 59 51 43 53 54 60 57 58 46 53 56 49 51 47 52 54 50 27 34 26 25 16 4 28 339 332
110 101 94 96 101 103 107 116 126 130 132 134 134 126 120 115 114 106 100 94 88 86 81 74 65 55 52 48 49 48 52 56 59 63 67 65 63 60 49 52 56 61 61 60 55 55 56 58 60 56 51 54 60 57 53 52 33 22 31 15 341 333
97 95 92 94 94 95 99 102 112 126 132 135 135 131 127 126 118 107 104 99 95 88 75 68 59 58 44 42 51 48 49 55 58 60 61 65 59 58 57 58 58 63 63 61 60 61 61 60 60 62 54 51 55 56 52 50 41 39 36 23 11 337
104 101 95 94 96 95 94 96 107 113 117 123 124 122 118 111 103 109 110 105 97 89 83 73 58 66 51 51 57 56 54 57 58 58 62 56 49 51 54 58 62 63 65 65 63 65 65 64 67 65 65 56 58 56 54 46 45 43 32 21 25 0
106 97 96 92 95 92 88 94 98 104 109 112 112 113 110 108 110 109 108 103 98 100 94 95 87 82 79 70 65 67 69 66 63 62 62 60 55 51 56 60 59 63 63 62 61 62 65 65 61 63 64 63 55 56 54 46 46 43 31 23 17 7
105 101 100 102 101 100 99 99 98 99 105 110 113 109 102 105 114 113 107 102 97 95 98 99 101 99 78 72 66 63 63 61 56 59 58 58 54 53 56 60 58 61 58 57 58 61 59 63 64 64 64 66 64 56 52 48 49 39 31 34 15 352
114 113 109 106 102 106 103 102 99 100 106 113 113 103 97 100 102 108 109 106 102 99 100 101 95 84 69 74 69 65 60 57 55 53 53 55 56 55 55 61 58 60 61 56 64 63 67 68 68 68 69 66 65 57 46 44 43 36 32 19 7 358
111 107 107 107 109 106 109 103 103 105 109 109 108 108 111 107 106 103 105 104 108 107 98 93 88 76 72 65 68 66 61 54 50 48 47 43 48 54 59 61 63 63 64 61 68 70 72 73 69 71 68 65 68 59 41 32 23 26 12 7 8 3